SCP
0 0 0 0 0 0 -0 -0 -0 -0 -0 -0 -0 -0 -0 -0 -0 -0 -0 -0 -0 -0 -0 -0 -0 -0 -0 -0 -0 -0 -0 -0
0 0 0 0 -0 -0 -0 -0 -0 -0 -0 -0 -0 -0 -0 0 -0 -0 -0 -0 -0 -0 -0 -0 -0 -0 -0 -0 -0 -0 0 0
0 0 -0 -0 -0 -0 -0 -0 -0 -0 -0 -0 -0 -0 0 0 0 -0 -0 -0 -0 -0 -0 -0 -0 -0 -0 -0 -0 0 0 0
-0 -0 -0 -0 -0 -0 -0 -0 -0 -0 -0 -0 -0 -0 0 0 0 -0 -0 -0 -0 0 0 0 0 0 0 0 0 0 0 0
-0 -0 -0 -0 -0 -0 -0 -0 -0 -0 -0 -0 0 0 0 0 0 0 0 0 0 0 0 0 0 0 0 0 0 0 0 0
-0 -0 -0 -0 0 0 0 0 0 -0 0 0 0 0 0 0 0 0 0 0 0 0 0 0 0 0 0 0 0 0 0 0
0 0 0 0 0 0 0 0 0 0 0 0 0 0 0 0 0 0 0 0 0 0 0 0 0 0 0 0 0 0 0 0
0 0 0 0 0 0 0 0 -0 0 0 0 0 0 0 0 0 0 0 0 0 0 0 0 0 0 0 0 0 0 0 0
0 0 0 0 0 0 0 0 0 -0 0 0 0 0 0 0 0 0 0 0 0 0 0 0 0 0 0 0 0 0 0 0
0 0 0 0 0 0 0 -0 -0 0 -0 0 0 0 0 0 0 0 0 0 0 0 0 0 0 0 0 0 0 0 0 0
0 0 0 0 0 0 -0 -0 0 0 0 0 0 0 0 0 0 0 0 0 0 0 0 0 0 0 0 0 0 0 0 0
0 0 0 0 0 0 0 0 0 0 0 0 0 0 0 0 0 0 0 0 0 0 0 0 0 0 0 0 0 0 0 0
0 0 0 0 0 -0 -0 0 0 0 0 0 0 0 0 0 0 0 0 0 0 0 0 0 0 0 0 0 0 0 0 0
0 0 0 0 -0 -0 0 0 0 0 0 0 0 0 0 0 0 0 0 0 0 0 0 0 0 0 0 0 0 0 0 0
0 0 -0 -0 -0 0 0 0 0 0 0 0 0 0 0 0 0 0 0 0 0 0 0 0 0 0 0 0 0 0 0 0
0 0 0 0 0 0 0 0 0 0 0 0 0 0 0 0 0 0 0 0 0 0 0 0 0 0 0 0 0 0 0 0
0 0 0 0 0 0 0 0 0 0 0 0 0 0 0 0 0 0 0 0 0 0 0 0 0 0 0 0 0 0 0 0
0 0 0 0 0 0 0 0 0 0 0 0 0 0 0 0 0 0 0 0 0 0 0 0 0 0 0 0 0 0 0 0
0 0 0 0 0 0 0 0 0 0 0 0 0 0 0 0 0 0 0 0 0 0 0 0 0 0 0 0 0 0 0 0
0 0 0 0 0 0 0 0 0 0 0 0 0 0 0 0 0 0 0 0 0 0 0 0 0 0 0 0 0 0 0 0
Wind_Speed_500mb
34 29 26 24 22 21 21 21 21 22 22 21 22 23 23 21 22 22 22 24 24 28 28 29 31 30 33 36 37 37 36 33
31 28 24 22 20 19 18 19 22 23 21 19 21 21 21 21 18 18 18 18 18 20 21 23 28 36 46 49 46 40 36 30
25 22 20 21 20 17 17 19 21 20 21 19 19 17 16 15 13 14 13 13 16 19 19 19 25 33 39 43 43 40 37 28
24 22 21 19 17 15 16 20 20 19 18 18 16 12 11 9 8 8 9 12 18 21 21 22 26 31 43 48 44 43 44 35
21 17 17 16 13 13 14 16 15 12 15 14 10 7 7 6 3 5 8 10 14 18 19 23 30 38 42 45 49 47 44 36
22 20 18 17 16 15 12 13 13 10 8 10 8 5 5 4 4 8 10 12 18 21 21 28 37 42 44 43 42 44 40 38
24 26 24 22 16 12 10 6 8 7 7 9 11 10 8 9 12 15 19 22 26 31 34 42 47 45 41 38 39 35 36 37
26 24 23 19 12 4 3 9 18 19 23 21 19 23 20 16 18 20 25 31 36 39 45 50 48 41 38 36 34 32 35 40
26 26 24 19 11 12 15 30 28 25 29 32 28 33 25 21 27 31 34 36 40 47 51 49 49 43 40 39 36 39 43 46
30 29 27 20 8 27 36 29 33 40 43 29 13 12 19 20 28 30 36 41 44 48 46 43 40 41 42 42 44 50 55 57
36 38 30 25 25 36 35 30 16 14 14 4 5 10 20 28 35 38 36 44 49 43 42 42 42 42 44 45 47 52 58 62
30 24 19 26 19 15 13 4 5 12 14 12 20 26 28 38 35 33 39 38 37 39 40 43 45 48 49 53 59 66 65 53
13 15 17 7 8 8 9 9 16 22 16 21 26 32 37 43 35 35 35 34 37 37 42 48 54 56 54 43 46 48 41 44
23 25 21 16 14 5 11 11 5 11 21 28 31 34 38 39 35 35 35 44 51 57 56 51 46 50 44 33 33 31 30 37
34 28 24 18 16 9 1 8 12 20 27 30 33 35 35 34 35 41 51 56 57 48 39 33 32 43 46 24 22 23 36 24
38 35 27 19 10 4 7 12 16 21 27 29 30 31 36 40 46 53 54 50 40 37 37 35 36 28 29 21 29 29 32 39
34 25 16 11 9 9 11 12 14 17 18 22 29 38 43 50 54 53 49 42 36 35 30 29 36 41 40 32 25 24 25 28
28 21 17 11 8 9 12 14 17 24 30 36 40 46 52 55 57 51 47 46 42 38 36 42 40 42 32 19 20 24 27 27
24 18 10 3 6 14 18 22 26 32 39 46 51 56 58 57 49 44 41 38 29 29 27 24 31 26 23 19 24 24 24 23
24 15 5 5 12 19 18 22 31 40 48 52 54 54 53 49 45 36 34 31 29 43 30 33 24 27 28 28 30 32 36 36
Wind_Direction_500mb
161 164 167 168 169 163 160 159 154 149 146 145 140 137 130 121 118 110 105 100 84 73 68 61 53 41 28 16 8 4 3 6
165 168 173 168 169 169 165 162 155 153 150 149 142 136 132 125 120 112 108 98 81 68 59 47 35 23 13 3 359 358 357 352
168 174 175 172 170 171 162 158 152 158 153 154 145 135 130 127 124 118 103 76 48 38 31 24 18 11 1 352 347 348 346 342
174 180 177 172 176 166 163 154 152 157 156 149 137 135 130 129 121 98 72 38 28 22 12 4 359 352 344 339 337 334 332 330
157 158 157 159 161 157 144 138 136 149 161 147 143 139 155 142 114 25 23 22 4 359 348 343 336 331 330 328 328 330 332 327
144 131 130 137 136 128 128 124 126 114 145 184 188 182 193 213 270 302 321 332 325 321 315 314 319 321 323 318 319 323 321 320
145 145 138 133 133 141 140 173 208 191 205 239 258 258 248 252 272 290 299 300 302 302 303 312 318 318 312 310 314 309 304 304
159 151 148 141 144 157 345 340 275 270 279 280 276 273 268 268 275 285 290 294 292 302 310 318 319 315 307 302 297 291 296 298
171 167 161 155 130 65 94 332 315 286 262 268 284 275 278 286 289 289 288 296 314 321 323 320 316 309 303 304 302 303 307 306
188 181 182 172 149 332 282 311 285 302 295 293 314 331 313 291 293 304 310 314 319 323 321 316 312 309 304 303 305 306 308 310
197 193 188 190 308 284 262 286 342 42 18 4 314 309 306 313 314 311 316 317 317 315 310 308 307 306 305 305 304 304 304 303
210 209 250 274 269 257 239 110 12 319 311 299 308 308 311 316 313 307 305 301 303 305 307 310 311 311 310 309 308 303 303 294
221 236 236 143 120 96 144 230 269 284 285 303 310 308 306 309 298 291 289 292 298 306 313 311 309 311 319 313 311 307 287 280
154 139 124 109 101 157 231 237 248 301 297 291 292 294 297 294 289 293 303 314 315 314 314 313 316 322 328 322 314 298 281 277
128 120 121 140 142 154 256 320 297 297 294 295 298 298 301 302 303 311 317 317 314 315 317 321 330 329 328 328 312 295 303 292
133 136 150 165 176 241 296 306 301 294 295 302 305 302 303 306 307 315 317 312 309 307 310 316 325 330 328 319 310 297 301 300
150 152 163 180 210 245 282 293 294 300 315 319 304 303 303 307 309 311 311 303 296 298 308 327 328 323 319 317 311 304 298 295
161 169 190 208 246 279 316 325 317 317 316 312 309 305 305 307 306 308 303 296 289 290 296 308 309 316 322 322 311 308 305 302
177 189 195 179 331 346 348 338 330 330 328 324 319 315 311 304 296 294 283 274 273 300 304 307 323 322 324 322 319 314 312 312
177 175 186 345 347 341 335 340 344 344 342 337 333 326 320 312 296 279 253 254 285 315 296 316 315 319 320 315 316 311 308 309
Wind_Speed_850mb
34 29 26 24 22 21 21 21 21 22 22 21 22 23 23 21 22 22 22 24 24 28 28 29 31 30 33 36 37 37 36 33
31 28 24 22 20 19 18 19 22 23 21 19 21 21 21 21 18 18 18 18 18 20 21 23 28 36 46 49 46 40 36 30
25 22 20 21 20 17 17 19 21 20 21 19 19 17 16 15 13 14 13 13 16 19 19 19 25 33 39 43 43 40 37 28
24 22 21 19 17 15 16 20 20 19 18 18 16 12 11 9 8 8 9 12 18 21 21 22 26 31 43 48 44 43 44 35
21 17 17 16 13 13 14 16 15 12 15 14 10 7 7 6 3 5 8 10 14 18 19 23 30 38 42 45 49 47 44 36
22 20 18 17 16 15 12 13 13 10 8 10 8 5 5 4 4 8 10 12 18 21 21 28 37 42 44 43 42 44 40 38
24 26 24 22 16 12 10 6 8 7 7 9 11 10 8 9 12 15 19 22 26 31 34 42 47 45 41 38 39 35 36 37
26 24 23 19 12 4 3 9 18 19 23 21 19 23 20 16 18 20 25 31 36 39 45 50 48 41 38 36 34 32 35 40
26 26 24 19 11 12 15 30 28 25 29 32 28 33 25 21 27 31 34 36 40 47 51 49 49 43 40 39 36 39 43 46
30 29 27 20 8 27 36 29 33 40 43 29 13 12 19 20 28 30 36 41 44 48 46 43 40 41 42 42 44 50 55 57
36 38 30 25 25 36 35 30 16 14 14 4 5 10 20 28 35 38 36 44 49 43 42 42 42 42 44 45 47 52 58 62
30 24 19 26 19 15 13 4 5 12 14 12 20 26 28 38 35 33 39 38 37 39 40 43 45 48 49 53 59 66 65 53
13 15 17 7 8 8 9 9 16 22 16 21 26 32 37 43 35 35 35 34 37 37 42 48 54 56 54 43 46 48 41 44
23 25 21 16 14 5 11 11 5 11 21 28 31 34 38 39 35 35 35 44 51 57 56 51 46 50 44 33 33 31 30 37
34 28 24 18 16 9 1 8 12 20 27 30 33 35 35 34 35 41 51 56 57 48 39 33 32 43 46 24 22 23 36 24
38 35 27 19 10 4 7 12 16 21 27 29 30 31 36 40 46 53 54 50 40 37 37 35 36 28 29 21 29 29 32 39
34 25 16 11 9 9 11 12 14 17 18 22 29 38 43 50 54 53 49 42 36 35 30 29 36 41 40 32 25 24 25 28
28 21 17 11 8 9 12 14 17 24 30 36 40 46 52 55 57 51 47 46 42 38 36 42 40 42 32 19 20 24 27 27
24 18 10 3 6 14 18 22 26 32 39 46 51 56 58 57 49 44 41 38 29 29 27 24 31 26 23 19 24 24 24 23
24 15 5 5 12 19 18 22 31 40 48 52 54 54 53 49 45 36 34 31 29 43 30 33 24 27 28 28 30 32 36 36
Wind_Direction_850mb
161 164 167 168 169 163 160 159 154 149 146 145 140 137 130 121 118 110 105 100 84 73 68 61 53 41 28 16 8 4 3 6
165 168 173 168 169 169 165 162 155 153 150 149 142 136 132 125 120 112 108 98 81 68 59 47 35 23 13 3 359 358 357 352
168 174 175 172 170 171 162 158 152 158 153 154 145 135 130 127 124 118 103 76 48 38 31 24 18 11 1 352 347 348 346 342
174 180 177 172 176 166 163 154 152 157 156 149 137 135 130 129 121 98 72 38 28 22 12 4 359 352 344 339 337 334 332 330
157 158 157 159 161 157 144 138 136 149 161 147 143 139 155 142 114 25 23 22 4 359 348 343 336 331 330 328 328 330 332 327
144 131 130 137 136 128 128 124 126 114 145 184 188 182 193 213 270 302 321 332 325 321 315 314 319 321 323 318 319 323 321 320
145 145 138 133 133 141 140 173 208 191 205 239 258 258 248 252 272 290 299 300 302 302 303 312 318 318 312 310 314 309 304 304
159 151 148 141 144 157 345 340 275 270 279 280 276 273 268 268 275 285 290 294 292 302 310 318 319 315 307 302 297 291 296 298
171 167 161 155 130 65 94 332 315 286 262 268 284 275 278 286 289 289 288 296 314 321 323 320 316 309 303 304 302 303 307 306
188 181 182 172 149 332 282 311 285 302 295 293 314 331 313 291 293 304 310 314 319 323 321 316 312 309 304 303 305 306 308 310
197 193 188 190 308 284 262 286 342 42 18 4 314 309 306 313 314 311 316 317 317 315 310 308 307 306 305 305 304 304 304 303
210 209 250 274 269 257 239 110 12 319 311 299 308 308 311 316 313 307 305 301 303 305 307 310 311 311 310 309 308 303 303 294
221 236 236 143 120 96 144 230 269 284 285 303 310 308 306 309 298 291 289 292 298 306 313 311 309 311 319 313 311 307 287 280
154 139 124 109 101 157 231 237 248 301 297 291 292 294 297 294 289 293 303 314 315 314 314 313 316 322 328 322 314 298 281 277
128 120 121 140 142 154 256 320 297 297 294 295 298 298 301 302 303 311 317 317 314 315 317 321 330 329 328 328 312 295 303 292
133 136 150 165 176 241 296 306 301 294 295 302 305 302 303 306 307 315 317 312 309 307 310 316 325 330 328 319 310 297 301 300
150 152 163 180 210 245 282 293 294 300 315 319 304 303 303 307 309 311 311 303 296 298 308 327 328 323 319 317 311 304 298 295
161 169 190 208 246 279 316 325 317 317 316 312 309 305 305 307 306 308 303 296 289 290 296 308 309 316 322 322 311 308 305 302
177 189 195 179 331 346 348 338 330 330 328 324 319 315 311 304 296 294 283 274 273 300 304 307 323 322 324 322 319 314 312 312
177 175 186 345 347 341 335 340 344 344 342 337 333 326 320 312 296 279 253 254 285 315 296 316 315 319 320 315 316 311 308 309